WD6AWP Weather Reports


time (UTC)temp
C
wind
direction
speed
KPH
gust
KPH
rain 1hr
cm
rain 24hr
cm
rain mn
cm
humidity
%
barometer
mb
20260902163103 23 167 3.2 9.7 0.00 0.00 0.00 75 1016.1
20260902161556 23 282 3.2 11.3 0.00 0.00 0.00 78 1016.0
20260902160056 22 288 0.0 6.4 0.00 0.00 0.00 78 1015.9
20260902154547 22 288 0.0 0.0 0.00 0.00 0.00 79 1016.0
20260902153044 21 288 0.0 0.0 0.00 0.00 0.00 82 1016.0
20260902151539 20 288 0.0 0.0 0.00 0.00 0.00 88 1016.0
20260902150035 19 289 0.0 0.0 0.00 0.00 0.00 89 1015.9
20260902144536 18 288 0.0 0.0 0.00 0.00 0.00 94 1015.9
20260902143030 17 289 0.0 0.0 0.00 0.00 0.00 97 1015.8
20260902141529 16 288 0.0 0.0 0.00 0.00 0.00 95 1015.6
20260902140028 15 288 0.0 0.0 0.00 0.00 0.00 94 1015.5
20260902134536 15 288 0.0 0.0 0.00 0.00 0.00 94 1015.4
20260902133028 15 288 0.0 0.0 0.00 0.00 0.00 94 1015.3
20260902131526 15 288 0.0 0.0 0.00 0.00 0.00 94 1015.2
20260902130025 16 288 0.0 0.0 0.00 0.00 0.00 94 1015.1
20260902124525 16 288 0.0 0.0 0.00 0.00 0.00 94 1015.1
20260902123025 16 289 0.0 0.0 0.00 0.00 0.00 94 1015.2
20260902121522 16 288 0.0 0.0 0.00 0.00 0.00 93 1015.1
20260902120022 16 288 0.0 0.0 0.00 0.00 0.00 94 1015.1
20260902114527 16 288 0.0 0.0 0.00 0.00 0.00 94 1015.3
20260902113032 16 288 0.0 0.0 0.00 0.00 0.00 93 1015.2
20260902111522 16 288 0.0 0.0 0.00 0.00 0.00 94 1015.3
20260902110018 16 288 0.0 0.0 0.00 0.00 0.00 93 1015.3
20260902104517 16 288 0.0 0.0 0.00 0.00 0.00 93 1015.3
20260902103026 16 288 0.0 0.0 0.00 0.00 0.00 92 1015.4
20260902101519 16 288 0.0 0.0 0.00 0.00 0.00 92 1015.5
20260902100017 16 288 0.0 0.0 0.00 0.00 0.00 92 1015.5
20260902094515 16 288 0.0 0.0 0.00 0.00 0.00 91 1015.5
20260902093012 16 288 0.0 0.0 0.00 0.00 0.00 91 1015.5
20260902091510 16 288 0.0 0.0 0.00 0.00 0.00 92 1015.6
20260902090009 17 289 0.0 0.0 0.00 0.00 0.00 91 1015.6
20260902084512 17 288 0.0 0.0 0.00 0.00 0.00 91 1015.6
20260902083008 17 288 0.0 0.0 0.00 0.00 0.00 91 1015.7
20260902081507 17 288 0.0 0.0 0.00 0.00 0.00 90 1015.8
20260902080005 17 288 0.0 0.0 0.00 0.00 0.00 90 1015.7
20260902074503 17 289 0.0 0.0 0.00 0.00 0.00 90 1015.6
20260902073002 17 288 0.0 0.0 0.00 0.00 0.00 89 1015.5
20260902071606 17 288 0.0 0.0 0.00 0.00 0.00 90 1015.4
20260902070057 17 288 0.0 0.0 0.00 0.00 0.00 89 1015.2
20260902064604 17 288 0.0 0.0 0.00 0.00 0.00 88 1015.2
20260902063054 17 288 0.0 0.0 0.00 0.00 0.00 87 1015.2
20260902061604 18 288 0.0 0.0 0.00 0.00 0.00 86 1015.2
20260902060054 18 289 0.0 0.0 0.00 0.00 0.00 85 1015.1
20260902054552 18 288 0.0 0.0 0.00 0.00 0.00 84 1015.0
20260902053049 19 288 0.0 0.0 0.00 0.00 0.00 84 1015.0
20260902051547 19 288 0.0 0.0 0.00 0.00 0.00 84 1015.0
20260902050057 20 289 0.0 0.0 0.00 0.00 0.00 83 1015.0
20260902044547 20 288 0.0 0.0 0.00 0.00 0.00 82 1014.9
20260902043047 20 288 0.0 0.0 0.00 0.00 0.00 82 1014.6
20260902041545 20 288 1.6 11.3 0.00 0.00 0.00 82 1014.4
20260902040045 20 284 4.8 12.9 0.00 0.00 0.00 82 1014.2
20260902034545 20 267 8.0 16.1 0.00 0.00 0.00 82 1013.9
20260902033046 20 284 9.7 19.3 0.00 0.00 0.00 82 1013.8
20260902031543 21 269 11.3 20.9 0.00 0.00 0.00 81 1013.6
20260902030043 21 282 12.9 24.1 0.00 0.00 0.00 81 1013.5
20260902024542 21 281 14.5 22.5 0.00 0.00 0.00 81 1013.4
20260902023045 21 271 9.7 19.3 0.00 0.00 0.00 81 1013.3
20260902021543 21 263 12.9 22.5 0.00 0.00 0.00 81 1013.4
20260902020040 21 253 16.1 29.0 0.00 0.00 0.00 81 1013.5
20260902014543 22 289 17.7 29.0 0.00 0.00 0.00 79 1013.4
20260902013037 22 273 14.5 25.7 0.00 0.00 0.00 80 1013.3
20260902011543 22 308 19.3 29.0 0.00 0.00 0.00 78 1013.4
20260902010034 23 241 19.3 32.2 0.00 0.00 0.00 76 1013.5
20260902004533 23 265 16.1 32.2 0.00 0.00 0.00 77 1013.6
20260902003031 23 242 14.5 29.0 0.00 0.00 0.00 77 1013.6
20260902001529 23 234 16.1 32.2 0.00 0.00 0.00 76 1013.7
20260902000028 24 271 12.9 29.0 0.00 0.00 0.00 75 1013.8
20260901234527 24 273 20.9 30.6 0.00 0.00 0.00 75 1013.9
20260901233026 25 274 19.3 29.0 0.00 0.00 0.00 74 1013.9
20260901231526 25 269 12.9 30.6 0.00 0.00 0.00 74 1013.9
20260901230025 25 266 14.5 22.5 0.00 0.00 0.00 73 1013.9
20260901224524 25 269 11.3 27.4 0.00 0.00 0.00 74 1014.1
20260901223024 25 289 17.7 27.4 0.00 0.00 0.00 73 1014.1
20260901221523 25 244 12.9 29.0 0.00 0.00 0.00 74 1014.2
20260901220022 25 234 12.9 27.4 0.00 0.00 0.00 74 1014.4
20260901214537 25 271 14.5 27.4 0.00 0.00 0.00 72 1014.6
20260901213021 25 279 11.3 27.4 0.00 0.00 0.00 72 1014.7
20260901211522 25 266 11.3 25.7 0.00 0.00 0.00 73 1014.8
20260901210020 25 239 12.9 25.7 0.00 0.00 0.00 72 1014.9
20260901204522 25 281 17.7 27.4 0.00 0.00 0.00 71 1014.9
20260901203018 25 286 14.5 24.1 0.00 0.00 0.00 71 1014.9
20260901201517 25 241 16.1 24.1 0.00 0.00 0.00 70 1015.1
20260901200017 25 265 12.9 24.1 0.00 0.00 0.00 72 1015.2
20260901194514 25 279 11.3 22.5 0.00 0.00 0.00 72 1015.3
20260901193012 25 253 9.7 22.5 0.00 0.00 0.00 72 1015.4
20260901191525 25 234 8.0 19.3 0.00 0.00 0.00 72 1015.6
20260901190010 25 292 11.3 20.9 0.00 0.00 0.00 71 1015.6
20260901184508 25 275 11.3 17.7 0.00 0.00 0.00 73 1015.7
20260901183007 24 261 8.0 17.7 0.00 0.00 0.00 74 1015.8
20260901181507 25 230 8.0 14.5 0.00 0.00 0.00 73 1015.7
20260901180005 25 250 6.4 17.7 0.00 0.00 0.00 73 1015.8
20260901174504 24 244 4.8 12.9 0.00 0.00 0.00 74 1015.8
20260901173002 25 271 6.4 16.1 0.00 0.00 0.00 73 1015.7
20260901171603 25 258 4.8 16.1 0.00 0.00 0.00 73 1015.6
20260901170056 24 268 4.8 16.1 0.00 0.00 0.00 73 1015.5
20260901164551 24 242 3.2 14.5 0.00 0.00 0.00 74 1015.4